Regional Weather Roundup
Issued by NWS

Home | Current Version | Previous Version | Text Only | Print | Product List | Glossary Off
Versions: 1 2 3 4 5 6 7 8 9 10 11 12 13 14 15 16 17 18 19 20 21 22 23 24 25 26 27 28 29 30 31 32 33 34 35 36 37 38 39 40 41 42 43 44 45 46 47 48 49 50

000
ASUS45 KABQ 220601
RWRNM
WEATHER ROUNDUP FOR NEW MEXICO
NATIONAL WEATHER SERVICE ALBUQUERQUE NM
1200 AM MDT FRI AUG 22 2014

NOTE: "FAIR" MEANS FEW OR NO CLOUDS BELOW 12,000 FEET AGL WITH NO
       SIGNIFICANT WEATHER OR OBSTRUCTIONS TO VISION.

      THIS PRODUCT IS RELEASED AS TWO VERSIONS.  ONE VERSION NEAR
      THE TOP OF THE HOUR CONTAINING PRELIMINARY DATA FROM ALBUQUERQUE
      AND OTHER STATIONS.  A FINAL VERSION WITH ADDITIONAL DATA IS
      ISSUED ABOUT 10 MINUTES AFTER THE HOUR.

NMZ501-503-504-510>518-220700-
NORTHWEST PLATEAU/NORTHCENTRAL MOUNTAINS

CITY           SKY/WX    TMP DP  RH WIND       PRES   REMARKS
FARMINGTON     CLOUDY    70  44  39 W14       30.15R
6HR MIN TEMP:  70; 6HR MAX TEMP:  80; 6HR PCP: TRACE;

LOS ALAMOS     MOCLDY    71  33  25 SW6       30.25S
SANTA FE       MOCLDY    68  37  32 E5        30.18S
6HR MIN TEMP:  68; 6HR MAX TEMP:  84;

TAOS           MOCLDY    63  36  36 E9        30.25S
ANGEL FIRE     FAIR      46  39  77 CALM      30.35F

$$
NMZ402-403-502-505>509-220700-
WESTCENTRAL MOUNTAINS/SOUTHWEST MOUNTAINS

CITY           SKY/WX    TMP DP  RH WIND       PRES   REMARKS
GALLUP         RAIN      57  54  89 SW6       30.28R
6HR MIN TEMP:  57; 6HR MAX TEMP:  74; 6HR PCP:  0.04;

SILVER CITY    CLOUDY    72  52  49 NW13      30.19S

$$
NMZ407-409-411-412-220700-
SOUTHERN DESERTS

CITY           SKY/WX    TMP DP  RH WIND       PRES   REMARKS
LORDSBURG      FAIR      72  50  46 W8        30.12S
DEMING         CLOUDY    76  56  49 S10       30.11R
6HR MIN TEMP:  76; 6HR MAX TEMP:  88;

LAS CRUCES     CLOUDY    74  58  56 W10       30.12S
HOLLOMAN AFB   CLOUDY    82  55  39 SE16      30.05S
ALAMOGORDO     CLOUDY    81  54  39 S17G24    30.08S
T OR C         MOCLDY    77  50  38 NW12      30.09S
6HR MIN TEMP:  77; 6HR MAX TEMP:  88;


$$
NMZ519>523-220700-
CENTRAL VALLEYS/CENTRAL HIGHLANDS

CITY           SKY/WX    TMP DP  RH WIND       PRES   REMARKS
ALBUQUERQUE    MOCLDY    75  47  36 SW8       30.12S
6HR MIN TEMP:  75; 6HR MAX TEMP:  87;

DOUBLE EAGLE   MOCLDY    70  44  40 W5        30.16R
CLINES CORNERS PTCLDY    63  46  54 S9        30.25S
6HR MIN TEMP:  62; 6HR MAX TEMP:  80;

BELEN          FAIR      71  49  45 SW7       30.12R
6HR MIN TEMP:  71; 6HR MAX TEMP:  85;

SOCORRO        FAIR      75  45  33 CALM      30.09S
6HR MIN TEMP:  73; 6HR MAX TEMP:  90;


$$
NMZ524>526-539-540-220700-
SOUTHCENTRAL MOUNTAINS

CITY           SKY/WX    TMP DP  RH WIND       PRES   REMARKS
RUIDOSO        NOT AVBL

$$
NMZ527>531-220700-
NORTHEAST HIGHLANDS/NORTHEAST PLAINS

CITY           SKY/WX    TMP DP  RH WIND       PRES   REMARKS
LAS VEGAS      CLEAR     60  41  49 S9        30.23S
6HR MIN TEMP:  60; 6HR MAX TEMP:  79; 6HR PCP: TRACE;

RATON          CLEAR     60  41  49 N5        30.15F
6HR MIN TEMP:  60; 6HR MAX TEMP:  84;

CLAYTON        CLEAR     69  53  56 S8        30.07S
6HR MIN TEMP:  68; 6HR MAX TEMP:  90;


$$
NMZ532>537-220700-
EASTCENTRAL PLAINS

CITY           SKY/WX    TMP DP  RH WIND       PRES   REMARKS
TUCUMCARI      PTCLDY    75  47  36 SW6       30.01R
6HR MIN TEMP:  74; 6HR MAX TEMP:  96;

CANNON AFB     NOT AVBL
CLOVIS AIRPORT   N/A     73  57  56 S17G26    30.10S

$$
NMZ028-029-538-220700-
SOUTHEAST PLAINS

CITY           SKY/WX    TMP DP  RH WIND       PRES   REMARKS
ROSWELL        MOCLDY    81  57  43 S10       30.02R
6HR MIN TEMP:  77; 6HR MAX TEMP:  95;

ARTESIA        MOCLDY    81  57  44 SE15      30.02S
CARLSBAD       PTCLDY    81  59  47 SE15      30.01S
6HR MIN TEMP:  81; 6HR MAX TEMP:  95;

HOBBS          FAIR      77  63  61 S14G25    30.08S


$$


USA.gov is the U.S. government's official web portal to all federal, state and local government web resources and services.